Wind_Speed
15 15 15 14 15 15 15 16 15 14 14 14 13 13 13 13 12 12 13 13 13 12 12 11 11 10 10 10 10 10 10 10 10 11 11 11 11 12 12 13 13 14 15
15 15 15 15 16 16 15 16 15 14 14 14 14 13 13 12 12 13 13 13 12 13 12 11 10 9 10 10 10 10 10 10 11 11 11 11 12 12 13 14 14 15 16
15 16 16 16 16 16 15 15 15 14 15 15 15 14 13 13 13 13 12 12 11 12 11 10 9 10 11 11 11 11 11 12 12 12 12 12 13 14 14 15 16 17 18
16 17 17 17 16 16 15 15 15 15 15 15 15 14 13 13 13 13 12 11 11 11 11 11 10 10 11 11 11 11 12 13 13 13 14 14 15 15 16 17 18 19 19
16 17 17 17 16 16 15 16 15 15 15 14 14 14 13 13 13 13 12 12 11 11 11 11 11 11 11 12 12 13 13 14 14 15 15 15 16 16 18 19 20 20 21
16 16 16 16 17 17 17 16 16 16 16 15 15 14 13 14 14 13 12 12 12 12 12 12 12 12 13 13 14 15 15 15 16 16 16 16 17 18 19 20 21 22 23
16 16 16 16 15 16 17 16 16 16 16 15 14 14 14 14 14 14 14 14 14 14 14 14 13 14 14 15 15 16 16 17 17 17 17 18 19 20 21 22 22 23 23
16 16 16 15 15 15 16 16 16 16 16 15 15 15 14 14 15 15 15 15 15 15 15 15 15 16 16 16 17 17 17 18 18 18 19 20 21 22 23 23 23 24 25
16 17 17 16 15 16 15 16 17 17 16 16 16 16 15 16 16 17 17 17 17 17 16 16 17 17 18 18 18 19 19 19 20 20 21 21 22 23 24 24 24 25 26
16 16 17 17 17 16 16 17 17 17 17 17 16 17 17 17 17 18 18 18 18 18 18 18 18 19 19 19 20 20 20 21 21 21 21 22 23 24 24 25 25 26 26
16 16 17 17 17 17 17 18 18 18 18 17 17 18 18 19 18 19 19 19 19 19 19 19 19 19 20 20 21 21 21 22 23 23 23 24 24 25 26 26 27 27 28
16 16 16 17 17 17 17 17 17 17 18 19 19 19 19 20 19 19 19 19 20 20 20 20 20 20 20 20 20 21 21 23 24 24 24 25 25 26 27 28 28 29 29
17 17 16 16 17 18 18 18 17 17 18 18 19 19 19 19 20 20 20 20 20 20 20 21 20 20 20 21 22 22 23 23 24 24 25 25 26 27 28 29 29 30 31
17 18 17 17 17 17 18 18 17 17 17 18 18 18 18 19 19 19 20 19 19 19 19 20 20 21 21 22 23 24 23 23 24 25 26 27 28 29 30 30 31 32 33
17 18 18 18 18 18 18 17 17 17 17 17 17 18 18 18 19 20 20 20 20 20 20 20 20 21 22 23 23 24 24 25 25 26 27 28 29 30 31 32 33 34 34
17 17 17 18 18 18 18 17 17 17 17 17 17 17 17 18 19 20 20 20 20 21 21 21 21 22 23 24 24 25 25 25 27 28 28 29 30 31 32 34 34 35 35
17 17 17 17 17 17 17 17 18 18 18 17 17 17 18 18 18 19 19 20 20 21 21 22 23 24 24 25 25 25 26 27 28 29 30 31 32 33 34 35 35 35 36
18 18 18 18 18 18 18 18 18 18 18 18 18 18 19 19 20 20 20 20 21 22 23 24 25 25 26 26 26 27 27 28 29 31 32 32 33 34 35 35 36 37 38
18 18 19 19 19 19 19 18 18 19 19 19 20 20 21 21 22 22 21 22 22 23 24 25 26 27 27 27 28 28 29 30 31 32 32 33 34 35 36 36 37 38 39
19 19 20 20 20 20 20 20 20 20 21 21 22 22 22 23 23 23 24 24 24 25 26 26 27 28 28 28 29 29 30 31 31 32 33 33 34 35 36 37 38 39 40
20 20 20 21 21 21 21 21 21 21 22 22 22 22 23 23 24 25 25 26 27 27 27 28 28 29 29 29 29 30 31 32 33 33 34 34 36 37 37 38 39 40 41
22 22 22 23 23 22 22 23 22 22 22 22 23 23 23 24 25 25 26 27 28 28 28 29 29 29 29 30 31 31 32 34 34 34 34 35 36 37 38 39 39 40 41
24 24 23 24 24 24 24 23 22 22 22 23 23 23 24 24 25 26 27 28 29 29 28 28 28 29 30 31 31 31 33 34 35 35 35 36 37 38 39 39 40 41 42
25 24 24 24 24 24 23 23 23 23 23 23 23 23 24 25 26 26 27 28 28 28 28 29 29 30 30 30 31 32 33 34 34 35 36 37 38 39 39 40 40 41 42
25 24 24 24 24 23 23 23 23 23 23 23 23 24 25 25 25 26 26 27 27 28 29 29 29 29 30 31 31 32 33 33 34 35 37 38 38 39 40 40 41 41 42
25 24 24 24 24 24 24 24 24 24 24 24 24 25 25 25 26 26 26 27 27 27 28 28 29 30 31 31 31 32 33 34 36 36 37 38 39 39 40 40 41 41 42
Wind_Direction
246 247 249 251 253 254 255 256 257 255 256 256 258 259 258 258 256 262 270 272 271 273 279 280 280 284 284 284 287 292 297 300 304 308 306 303 299 295 294 296 297 299 299
246 246 249 251 254 256 255 255 255 254 254 255 259 258 258 258 259 260 264 268 267 269 273 273 275 280 284 284 287 289 294 297 302 305 308 307 301 297 296 298 300 300 300
249 249 250 251 252 254 252 249 249 251 254 256 258 260 260 258 259 258 260 264 266 267 266 269 276 279 280 282 288 292 293 297 301 305 305 306 303 299 299 300 301 301 302
249 249 249 250 252 253 250 248 248 250 252 255 258 262 262 258 258 255 256 259 261 263 266 270 276 281 284 284 290 296 296 297 298 301 301 302 304 301 299 301 302 302 302
249 249 248 249 250 251 250 249 248 248 249 255 258 260 259 257 257 256 256 258 261 265 267 270 277 282 284 286 291 295 295 296 296 299 300 301 303 303 301 301 302 303 302
248 249 248 248 249 250 249 248 248 247 250 254 259 256 256 255 254 253 255 259 261 267 272 277 282 286 287 290 294 295 295 296 298 298 299 299 300 301 302 301 300 301 302
251 251 250 251 251 252 251 250 248 248 251 255 255 255 257 254 254 255 259 261 263 269 274 276 281 286 289 292 293 295 295 296 297 299 299 299 299 301 304 304 301 300 301
251 252 251 253 253 255 253 251 249 249 251 254 254 254 255 255 255 258 261 262 265 268 273 275 278 284 287 288 290 292 294 294 295 296 296 297 300 301 303 303 301 301 301
250 251 252 253 255 256 255 254 250 249 251 254 253 253 255 257 258 260 264 265 265 269 271 274 278 283 287 288 290 292 293 293 294 297 297 297 299 302 303 303 303 302 302
250 251 250 248 254 256 258 254 250 250 252 253 254 255 256 257 260 261 265 266 266 268 269 273 278 282 286 288 291 293 294 295 296 297 299 299 300 302 302 303 304 304 303
252 252 252 252 254 256 258 256 252 253 251 253 257 259 260 260 262 262 264 266 266 267 269 274 278 282 286 288 290 293 295 297 298 299 300 301 301 302 303 303 305 305 304
255 254 255 255 256 256 256 254 252 251 252 255 259 261 262 263 262 264 265 266 266 266 270 275 277 280 285 288 290 293 295 296 298 298 299 301 302 303 304 304 305 305 305
256 256 260 260 261 260 257 254 253 253 255 256 258 261 261 261 263 264 267 269 267 268 271 275 277 280 284 288 290 293 295 295 297 298 299 300 301 303 305 305 306 306 306
254 255 259 259 262 262 260 256 253 256 258 259 259 261 261 262 262 264 267 269 268 271 274 276 279 282 285 289 290 292 294 295 297 298 298 300 301 303 304 305 305 305 306
255 256 258 259 260 262 261 258 254 256 259 260 261 262 261 261 263 265 267 268 268 270 274 278 281 283 287 290 291 293 293 295 297 299 300 301 302 304 305 305 304 304 306
259 259 259 259 259 261 261 257 254 257 260 261 262 263 263 263 264 267 267 269 271 273 277 280 283 285 288 291 292 292 293 295 297 299 300 301 303 304 305 305 305 305 305
260 260 260 258 258 260 261 261 261 262 264 264 264 266 266 265 267 269 270 273 275 277 280 282 283 287 289 291 291 292 293 295 298 300 301 303 304 305 306 306 306 305 305
261 262 261 260 261 261 262 263 263 265 265 265 266 269 269 268 269 271 272 275 276 278 281 282 284 288 289 289 290 292 294 295 297 299 301 302 303 304 306 307 307 306 305
265 263 261 261 261 261 262 263 264 265 265 266 268 270 270 268 269 271 274 276 277 279 281 284 286 289 290 288 290 292 294 295 297 299 301 302 303 305 306 307 307 307 307
265 265 263 262 262 263 263 264 266 267 266 266 269 269 268 269 272 275 277 278 279 281 282 284 288 289 289 290 291 293 295 296 297 299 300 302 304 305 306 307 307 308 308
266 266 265 263 262 262 264 265 266 266 266 268 270 269 269 270 272 274 276 278 279 281 283 286 288 289 289 290 291 293 295 296 298 299 300 301 303 305 306 307 308 308 308
266 266 266 264 263 262 264 264 264 265 267 268 268 268 270 271 272 273 275 277 278 281 283 286 287 288 290 291 291 293 295 296 298 300 301 302 304 306 307 308 308 309 309
264 265 265 263 261 263 264 264 264 266 268 268 268 269 270 271 272 274 276 277 279 281 284 286 287 289 291 293 293 293 295 297 299 300 302 304 305 307 307 308 309 309 310
264 263 263 263 262 262 263 264 265 266 268 268 270 272 273 274 275 276 278 279 280 282 283 285 288 290 291 292 293 294 296 298 300 301 303 304 306 307 308 309 309 310 310
263 262 262 262 262 262 263 264 265 265 267 268 271 273 275 277 277 278 279 281 283 284 285 286 288 291 292 293 294 296 297 299 301 302 303 305 306 308 308 309 309 310 310
263 262 261 261 261 262 263 264 265 266 267 269 272 274 275 276 278 279 281 283 285 287 288 289 290 291 292 293 294 296 299 300 301 302 303 305 307 308 308 309 310 310 311
Height
5838 5838 5839 5840 5841 5841 5842 5842 5843 5843 5844 5844 5844 5844 5844 5844 5845 5845 5845 5845 5845 5845 5844 5843 5842 5842 5841 5840 5839 5838 5837 5835 5833 5831 5829 5827 5826 5825 5824 5824 5823 5821 5819
5833 5834 5835 5836 5837 5837 5838 5838 5839 5839 5840 5840 5840 5840 5841 5841 5841 5841 5842 5841 5841 5841 5841 5840 5839 5839 5838 5837 5836 5835 5834 5833 5831 5829 5827 5825 5823 5822 5821 5820 5819 5817 5815
5829 5830 5831 5832 5833 5833 5833 5834 5835 5835 5836 5836 5837 5837 5837 5837 5837 5837 5838 5838 5838 5837 5837 5837 5836 5835 5835 5834 5833 5832 5831 5829 5828 5826 5824 5823 5821 5820 5818 5817 5815 5813 5812
5825 5826 5826 5827 5828 5829 5829 5830 5831 5831 5832 5833 5833 5833 5833 5833 5833 5834 5834 5834 5834 5834 5834 5834 5833 5833 5832 5831 5830 5829 5827 5826 5825 5823 5821 5820 5818 5816 5815 5813 5811 5809 5807
5820 5821 5822 5823 5824 5824 5825 5826 5826 5827 5828 5829 5829 5829 5829 5829 5830 5830 5830 5831 5831 5831 5831 5830 5830 5829 5828 5828 5827 5826 5824 5823 5821 5820 5818 5816 5814 5812 5810 5809 5807 5804 5802
5816 5816 5817 5818 5819 5820 5821 5821 5822 5823 5824 5824 5825 5825 5825 5825 5826 5826 5827 5827 5827 5827 5827 5827 5826 5825 5825 5824 5823 5822 5820 5819 5817 5816 5814 5812 5810 5808 5806 5804 5802 5799 5797
5812 5812 5813 5814 5815 5816 5816 5817 5818 5819 5820 5820 5820 5821 5821 5821 5822 5822 5822 5823 5823 5823 5824 5823 5823 5822 5821 5820 5819 5818 5816 5814 5813 5812 5810 5808 5806 5804 5802 5799 5796 5794 5791
5808 5808 5809 5810 5811 5811 5812 5813 5814 5815 5815 5816 5816 5817 5817 5818 5818 5818 5818 5819 5819 5819 5819 5819 5819 5818 5817 5816 5815 5813 5812 5810 5809 5807 5805 5803 5801 5798 5795 5793 5790 5787 5785
5804 5805 5806 5806 5807 5807 5808 5809 5809 5810 5811 5811 5812 5812 5813 5814 5814 5814 5814 5814 5814 5815 5815 5815 5814 5813 5812 5811 5810 5809 5807 5805 5803 5801 5799 5797 5795 5792 5789 5786 5784 5781 5778
5800 5801 5801 5802 5803 5803 5804 5804 5805 5805 5806 5807 5807 5808 5809 5809 5809 5810 5810 5810 5810 5810 5810 5810 5809 5808 5807 5806 5805 5803 5801 5800 5798 5796 5793 5791 5788 5786 5783 5780 5777 5774 5771
5796 5796 5797 5798 5798 5799 5799 5799 5800 5801 5801 5802 5802 5803 5804 5804 5804 5805 5805 5805 5805 5805 5805 5804 5804 5803 5802 5801 5799 5797 5796 5794 5792 5789 5787 5785 5782 5779 5776 5773 5770 5767 5763
5791 5792 5792 5793 5793 5794 5794 5795 5795 5796 5796 5797 5798 5798 5798 5799 5799 5799 5799 5799 5799 5799 5799 5799 5798 5797 5796 5795 5794 5792 5790 5788 5786 5783 5781 5778 5776 5772 5769 5766 5762 5759 5755
5786 5787 5788 5788 5789 5789 5789 5790 5790 5791 5791 5792 5792 5793 5793 5793 5793 5794 5794 5794 5794 5794 5794 5793 5792 5792 5791 5789 5788 5786 5784 5782 5779 5777 5774 5772 5769 5766 5762 5759 5755 5751 5747
5782 5783 5783 5784 5784 5784 5784 5785 5785 5786 5786 5786 5787 5787 5787 5788 5788 5788 5788 5788 5788 5788 5788 5787 5787 5786 5785 5783 5782 5780 5777 5775 5773 5770 5768 5765 5762 5759 5755 5751 5747 5743 5739
5778 5778 5779 5779 5779 5779 5779 5780 5780 5781 5781 5781 5782 5782 5782 5782 5783 5783 5783 5783 5783 5783 5782 5782 5781 5780 5779 5777 5775 5773 5771 5768 5766 5763 5760 5758 5754 5751 5747 5743 5739 5735 5731
5773 5773 5774 5774 5775 5775 5775 5775 5775 5776 5776 5776 5776 5777 5777 5777 5777 5777 5777 5777 5777 5777 5776 5776 5775 5774 5772 5770 5768 5766 5764 5762 5759 5756 5753 5750 5746 5743 5739 5735 5730 5726 5722
5768 5769 5769 5769 5770 5770 5770 5770 5771 5771 5771 5771 5771 5771 5772 5771 5771 5771 5771 5771 5771 5771 5770 5770 5768 5767 5765 5764 5761 5759 5757 5754 5752 5748 5745 5742 5738 5734 5730 5726 5721 5717 5712
5763 5763 5763 5764 5764 5765 5765 5765 5766 5766 5766 5766 5766 5766 5766 5766 5766 5766 5766 5765 5765 5764 5764 5763 5761 5760 5758 5756 5754 5752 5749 5747 5744 5740 5737 5733 5729 5725 5721 5717 5712 5707 5702
5757 5757 5758 5758 5759 5759 5759 5760 5760 5760 5760 5760 5760 5760 5760 5760 5760 5760 5759 5759 5758 5758 5757 5755 5754 5752 5750 5748 5746 5744 5741 5738 5735 5732 5728 5724 5720 5716 5712 5707 5703 5698 5692
5751 5751 5751 5752 5752 5753 5753 5754 5754 5754 5754 5754 5754 5754 5754 5754 5754 5753 5753 5752 5752 5750 5749 5748 5746 5745 5743 5740 5738 5736 5733 5730 5727 5723 5720 5716 5711 5707 5703 5698 5693 5688 5682
5745 5745 5745 5745 5746 5746 5747 5747 5747 5747 5747 5747 5747 5747 5747 5747 5747 5746 5746 5745 5744 5743 5741 5740 5738 5736 5734 5732 5729 5727 5724 5721 5717 5714 5710 5706 5702 5698 5693 5688 5683 5677 5672
5738 5738 5738 5739 5739 5739 5740 5740 5740 5740 5740 5740 5740 5740 5740 5739 5739 5738 5737 5737 5736 5734 5733 5732 5730 5728 5726 5723 5721 5718 5715 5712 5708 5705 5701 5697 5692 5688 5683 5678 5673 5667 5662
5730 5730 5731 5731 5731 5732 5732 5732 5732 5733 5733 5732 5732 5732 5732 5731 5731 5730 5729 5728 5727 5726 5724 5723 5721 5719 5717 5714 5711 5709 5706 5703 5699 5695 5691 5687 5683 5678 5673 5668 5663 5657 5651
5722 5722 5723 5723 5723 5724 5724 5724 5725 5725 5725 5725 5725 5724 5724 5723 5722 5721 5721 5719 5718 5717 5715 5714 5712 5710 5708 5705 5702 5699 5696 5693 5689 5686 5682 5678 5673 5668 5663 5658 5652 5647 5641
5714 5714 5715 5715 5716 5716 5716 5716 5717 5717 5717 5717 5717 5716 5716 5715 5714 5713 5712 5711 5710 5708 5707 5705 5703 5701 5699 5696 5693 5690 5687 5684 5680 5676 5673 5668 5663 5658 5653 5648 5642 5636 5630
5706 5706 5707 5707 5708 5708 5708 5709 5709 5709 5709 5709 5709 5708 5708 5707 5706 5705 5704 5703 5701 5700 5698 5696 5694 5692 5690 5687 5684 5681 5678 5674 5671 5667 5662 5658 5653 5648 5643 5637 5631 5625 5620